Regional Weather Roundup
Issued by NWS Pendleton, OR

Home | Current Version | Previous Version | Text Only | Print | Product List | Glossary On
Versions: 1 2 3 4 5 6 7 8 9 10 11 12 13 14 15 16 17 18 19 20 21 22 23 24 25 26 27 28 29 30 31 32 33 34 35 36 37 38 39 40 41 42 43 44 45 46 47 48 49 50
000
ASUS46 KPDT 041825
RWRPDT
PENDLETON REGIONAL WEATHER ROUNDUP
NATIONAL WEATHER SERVICE PENDLETON OREGON
1100 AM PDT TUE AUG 4 2015

NOTE: FAIR INDICATES FEW OR NO CLOUDS BELOW 12,000 FEET WITH NO
SIGNIFICANT WEATHER AND/OR OBSTRUCTIONS TO VISIBILITY.

# INDICATES UNOFFICIAL STATION AND DATA

WAZ520-041910-
EAST SLOPES OF WASHINGTON CASCADES

CITY            SKY/WX      TMP DP  RH  WIND    PRES   REMARKS
#BULLFROG 2SW   N/A         72  49  44  N3      27.55S
#BUMPING DAM    N/A         65  N/A N/A S2      N/A
#CLE ELUM HS    N/A         71  49  46  W10     29.88S
#CLE ELUM LAKE  N/A         71  51  49  NW2     29.82R
#CLIFFDEL 2NW   N/A         69  47  45  N3      N/A
#GLENWOOD       N/A         75  53  46  S7      29.85F
#MANASTASH CYN  N/A         75  40  28  CALM    29.92F
#NELSON         N/A         73  52  48  CALM    29.85S
#NELSON 3SW     N/A         70  49  47  E2      30.02R
#NILE           N/A         76  49  39  W2      29.12F
#RONALD 2NW     N/A         71  51  49  S2      29.85S
#SNOWDEN        N/A         70  32  24  W2      N/A
#TEANAWAY 4NE   N/A         75  53  46  N5      N/A
#TROUT LAKE 1NE N/A         75  45  34  NW7     29.86S
$$

WAZ521-041910-
SIMCOE HIGHLANDS

CITY            SKY/WX      TMP DP  RH  WIND    PRES   REMARKS
#BICKLETON HS   N/A         74  39  28  W7      N/A
#CENTERVILLE 4W N/A         76  46  34  CALM    29.68F
#CENTERVILLE 1SWN/A         75  48  38  W10     29.83S
#GOLDENDALE     N/A         72  49  44  W7      N/A
#GOLDENDALE 1NE N/A         73  38  28  S7      N/A
#GOLDENDALE 5WNWN/A         74  51  44  NW7     29.84F
#GOODNOE HILLS  N/A         81  44  27  SW20    N/A
#LYLE 6NE       N/A         72  48  43  S7      29.85S
$$

WAZ026-041910-
KITTITAS VALLEY

CITY            SKY/WX      TMP DP  RH  WIND    PRES   REMARKS
ELLENSBURG AP   PTCLDY      82  44  26  NW25G33 29.90F
6HR MIN TEMP:   65; 6HR MAX TEMP:   82;

YTC-OPS AREA    N/A         32  32  100 SW13G29 29.93S WCI 22
#ELLENSBURG CWU N/A         78  45  31  NW16    29.76F
#ELLENSBURG 3NE N/A         76  48  37  N12G24  29.89F
#ELLENSBURG 1E  N/A         76  50  40  CALM    N/A
#KITTITAS 3S    N/A         75  57  54  CALM    29.80F
#THORP 6N       N/A         71  48  44  W20G30  29.83F
$$

WAZ027-041910-
YAKIMA VALLEY

CITY            SKY/WX      TMP DP  RH  WIND    PRES   REMARKS
SUNNYSIDE AP    SUNNY       79  50  36  CALM    29.87F
YAKIMA AIRPORT  PTCLDY      84  48  29  VRB5    29.88F
6HR MIN TEMP:   62; 6HR MAX TEMP:   84;

#DONALD 2NE     N/A         89  18   7  E1      28.73F
#GRANDVIEW      N/A         80  51  36  NW1     29.85F
#MABTON         N/A         78  58  50  CALM    29.86F
#MOXEE 2E       N/A         79  16   9  S7      29.78F
#NACHES 2SW     N/A         76  51  42  W3      29.92F
#OUTLOOK DOT    N/A         N/A N/A N/A W6      N/A
#SELAH 8E       N/A         81  46  29  W7      N/A
#TERRACE HTS    N/A         83  50  32  CALM    29.78F
#TOPPENISH      N/A         79  53  41  N1      29.75F
#WAPATO 4NE     N/A         89  18   7  E1      28.73F
#WEST VALLEY    N/A         78  50  38  S3      29.80F
#W YAKIMA       N/A         80  52  38  W3      29.81F
#WHITE SWAN 5E  N/A         79  56  45  N2      29.83F
#WILEY CITY 3W  N/A         80  42  26  CALM    29.86F
$$

WAZ028-041910-
LOWER COLUMBIA BASIN...WASHINGTON

CITY            SKY/WX      TMP DP  RH  WIND    PRES   REMARKS
HANFORD         MOSUNNY     84  44  25  S6      29.85F
PASCO           SUNNY       84  51  32  VRB6    29.87S
6HR MIN TEMP:   58; 6HR MAX TEMP:   84;

RICHLAND AWOS   SUNNY       84  50  31  CALM    29.87S
#BASIN CITY 5SW N/A         80  60  51  SE2     29.87S
#BENTON CITY    N/A         80  52  38  W3      29.75R
#CONNELL 5N     N/A         81  49  33  SW5     29.83R
#CONNELL 5NW    N/A         78  53  42  SW3     29.80S
#ELTOPIA 6NW    N/A         76  59  56  S2      28.86S
#KAHLOTUS       N/A         80  51  36  SW3     29.82F
#KENNEWICK      N/A         72  49  44  N3      27.55S
#KENNEWICK 3S   N/A         80  54  41  N3      29.84S
#PASCO-BROADMOORN/A         87  52  30  W1      29.74S
#PATERSON       N/A         78  56  47  SW10    29.84S
#PROSSER        N/A         80  50  35  CALM    29.83S
#SAGEMOOR 2W    N/A         84  58  41  CALM    29.70S
#TOUCHET 2S     N/A         81  54  39  SW7     29.82F
#WEST PASCO     N/A         84  58  41  W1      29.84R
$$

WAZ029-041910-
FOOTHILLS OF THE BLUES...WASHINGTON

CITY            SKY/WX      TMP DP  RH  WIND    PRES   REMARKS
WALLA WALLA AP  PTCLDY      84  44  25  S16     29.91S
6HR MIN TEMP:   67; 6HR MAX TEMP:   84;

#DAYTON SCHOOL  N/A         79  41  26  S7      29.92R
#LOWDEN 2SE     N/A         82  52  35  W10     29.85S
#PLEASANT VIEW 1N/A         80  47  31  S13     29.85F
#PRESCOTT       N/A         82  51  34  SW6     29.83F
#SUDBURY        N/A         85  N/A N/A CALM    N/A
#WHITMAN COLLEGEN/A         81  49  33  S5      29.89F
#WAITSBURG 8N   N/A         80  23  12  SE15G26 29.76S
#WALLA WALLA U  N/A         83  48  30  SW2     29.84F
$$

WAZ030-041910-
BLUE MOUNTAINS...WASHINGTON

CITY            SKY/WX      TMP DP  RH  WIND    PRES   REMARKS
$$

ORZ009-041-WAZ024-041910-
COLUMBIA RIVER GORGE

CITY            SKY/WX      TMP DP  RH  WIND    PRES   REMARKS
HOOD RIVER AP   SUNNY       75  46  36  NW15    29.94F
THE DALLES AP   SUNNY       79  45  30  NW16G24 29.91S
6HR MIN TEMP:   65; 6HR MAX TEMP:   80;

#ARLINGTON AIRPON/A         82  44  26  W16     29.79S
#MOSIER 1S      N/A         75  36  24  NW8     29.93F
#MURDOCK        N/A         75  51  43  W20G28  29.90S

$$

ORZ510-041910-
NORTH CENTRAL OREGON

CITY            SKY/WX      TMP DP  RH  WIND    PRES   REMARKS
#CHENOWITH 1W   N/A         65  46  50  NW25    N/A
#DUFUR 9E       N/A         68  50  53  NW8     29.92R
#GRASS VALLEY 1SN/A         80  47  31  W7      29.87S
#MAUPIN SCHOOL  N/A         81  51  35  N2      29.92F
#MORO SCHOOL    N/A         73  56  55  NW9     29.96S
#SHANIKO 4NW    N/A         72  39  30  SW6     30.04S
#TYGH VALLEY 2NEN/A         80  49  34  CALM    29.86S
#WAPANITIA AIRPON/A         80  46  30  W7      29.85F
#WASCO AIRPORT  N/A         76  43  31  W16     N/A
#WASCO 5NE      N/A         78  44  30  SW10    29.85S
$$

ORZ511-041910-
CENTRAL OREGON

CITY            SKY/WX      TMP DP  RH  WIND    PRES   REMARKS
BEND AIRPORT    SUNNY       75  45  34  CALM    30.02F
MADRAS AIRPORT  SUNNY       75  41  29  CALM    30.01F
PRINEVILLE AP   SUNNY       77  43  30  VRB5    30.01F
REDMOND AIRPORT SUNNY       78  47  34  N5      30.01F
6HR MIN TEMP:   53; 6HR MAX TEMP:   79;

#BEND 1SW       N/A         77  46  33  S1      N/A
#BEND-AWBREY    N/A         73  53  49  W1      29.84S
#BEND-KIM LN    N/A         77  53  43  CALM    30.00F
#CULVER         N/A         76  47  36  CALM    29.95F
#LAKE BILLY CHINN/A         77   8   7  CALM    30.02F
#POWELL BUTTE 3EN/A         72  48  43  N5      N/A
#POWELL BUTTE   N/A         79  49  35  NE2     29.65F
#PRINEVILLE 3N  N/A         76  52  43  S1      29.83F
#WARM SPRINGS   N/A         80  47  31  S1      29.93F

$$


ORZ509-041910-
EAST SLOPES OF OREGON CASCADES

CITY            SKY/WX      TMP DP  RH  WIND    PRES   REMARKS
#CAMP SHERMAN   N/A         83  44  25  CALM    29.81F
#LA PINE 4NW    N/A         71  52  51  SW1     29.91F
#SISTERS AIRPOR N/A         78  52  40  N5      30.17S
#SISTERS 1NW    N/A         78  N/A N/A S7      N/A
#SISTERS 3N     N/A         79  47  32  E3      30.22S
#SUNRIVER       N/A         72  52  49  S2      29.75F

$$

ORZ044-041910-
LOWER COLUMBIA BASIN...OREGON

CITY            SKY/WX      TMP DP  RH  WIND    PRES   REMARKS
HERMISTON       SUNNY       83  51  33  SW12    29.88F
6HR MIN TEMP:   68; 6HR MAX TEMP:   84;

#BOARDMAN SCHOOLN/A         81  50  34  SW14    29.87F
#BOARDMAN 8SW   N/A         82  50  33  W15     29.84S
#ECHO 8SW       N/A         83  47  28  W8      29.89F
#IONE SCHOOL    N/A         83  45  26  SW6     29.87F
#IRRIGON 4NW    N/A         81  54  39  S10     N/A
#UMATILLA SCHOOLN/A         84  63  49  W7      29.89F
#UMATILLA       N/A         82  52  35  SW8     29.79F
$$

ORZ507-041910-
NORTHERN FOOTHILLS OF THE BLUES

CITY            SKY/WX      TMP DP  RH  WIND    PRES   REMARKS
PENDLETON AIRPT SUNNY       82  43  25  W15     29.92S
#ADAMS 3WNW     N/A         80  44  28  W8      29.85S
#ATHENA         N/A         79  45  30  W3      29.87F
#CAYUSE         N/A         80  45  29  W6      29.84S
#HELIX SCHOOL   N/A         78  45  31  SW13    29.84S
#HELIX 3N       N/A         80  46  30  SW17    29.91S
#HELIX 6SW      N/A         79  48  34  SW13    29.92F
#HOLDMAN 5SE    N/A         80  50  35  W7      29.92F
#HOLDMAN 6E     N/A         78  49  36  NE10    29.66F
#M-FREEWATER 5SEN/A         78  47  34  SW3     29.92R
#PENDLETON DNTN N/A         86  47  26  W1      N/A
#PDT AQUATIC CTRN/A         80  47  31  W6      29.88F
#PDT SUNRIDGE   N/A         84  43  24  W5      29.92F
#PENDLETON 7NW  N/A         83  54  37  W7      29.24S
#PILOT ROCK     N/A         83  46  27  W2      29.95F
#TUTUILLA       N/A         82  43  25  SW1     29.88S
#UMAPINE 2E     N/A         82  55  40  SW5     29.86F
#WESTON SCHOOL  N/A         78  38  24  NW7     29.86F

$$

ORZ508-041910-
SOUTHERN FOOTHILLS OF THE BLUES

CITY            SKY/WX      TMP DP  RH  WIND    PRES   REMARKS
#AJAX           N/A         77  40  26  CALM    29.90F
#CONDON SCHOOL  N/A         74  44  34  SW9     29.95F
#CONDON 5W      N/A         72  40  31  SW8     29.98S
#FOSSIL SCHOOL  N/A         78  41  27  CALM    29.93F
#HEPPNER EOC    N/A         80  43  27  NW6     29.78F
#HEPPNER 4NE    N/A         77  41  28  SW7     29.83F
#LEXINGTON 2SE  N/A         83  45  26  W5      29.90F
#OLEX 4N        N/A         78  41  27  W17G24  29.90S
#RUGGS 5NE      N/A         78  41  27  W9      30.17S
#RUGGS 2SW      N/A         78  40  26  W7      29.85F

$$

ORZ502-503-041910-
BLUE MOUNTAINS

CITY            SKY/WX      TMP DP  RH  WIND    PRES   REMARKS
MEACHAM         SUNNY       79  37  22  VRB5    30.03S
#LONG CREEK HS  N/A         75  43  32  CALM    29.98F
#PIKES PEAK     N/A         70  39  32  SW16G25 27.99S
#TOLLGATE       N/A         66  41  40  W1      29.96R
#TROY SCHOOL    N/A         81  49  33  CALM    29.67F
#UKIAH          N/A         78  46  32  E3      29.91F
$$

ORZ505-041910-
JOHN DAY BASIN

CITY            SKY/WX      TMP DP  RH  WIND    PRES   REMARKS
JOHN DAY        SUNNY       80  46  30  W5      30.03F
#JOHN DAY KJDY  N/A         81  48  32  SW3     30.04F
#DAYVILLE SCHOOLN/A         77  49  37  CALM    29.96S
#MITCHELL       N/A         82  49  32  CALM    30.14F
#MONUMENT HS    N/A         79  43  28  E2      29.96F
#WINLOCK        N/A         84  44  25  E7      30.08F
$$

ORZ506-041910-
OCHOCO AND JOHN DAY HIGHLANDS

CITY            SKY/WX      TMP DP  RH  WIND    PRES   REMARKS
#PINE MTN OBS   N/A         65  51  60  SW5     N/A
#PRAIRIE CITY   N/A         81  46  29  CALM    29.81F
#SENECA         N/A         76  N/A N/A N1      N/A
#SENECA 9NW     N/A         68  48  49  CALM    29.85S
$$

ORZ049-041910-
GRANDE RONDE VALLEY

CITY            SKY/WX      TMP DP  RH  WIND    PRES   REMARKS
LA GRANDE       SUNNY       81  43  26  SE3     29.98F
#COVE           N/A         78  51  39  CALM    30.01F
#COVE SCHOOL    N/A         80  50  35  CALM    30.02S
#COVE 6NW       N/A         77  46  33  CALM    29.90F
#ELGIN 3N       N/A         78  45  31  CALM    29.95F
#ELGIN 1E       N/A         77  46  33  CALM    N/A
#ISLAND CITY 4N N/A         71  54  55  CALM    30.03S
#UNION 1S       N/A         77  47  35  CALM    29.76F
$$

ORZ050-041910-
WALLOWA COUNTY

CITY            SKY/WX      TMP DP  RH  WIND    PRES   REMARKS
JOSEPH AIRPORT  SUNNY       77  41  28  N5      30.05S
#ENTERPRISE HS  N/A         77  49  37  CALM    30.02F
#IMNAHA SCHOOL  N/A         88  47  24  E1      29.90F
#IMNAHA 10S     N/A         85  47  27  NE2     29.95F
#JOSEPH 3N      N/A         74  42  32  CALM    30.05F
#JOSEPH 3W      N/A         72  43  35  CALM    29.91S
#LOSTINE        N/A         78  48  35  CALM    29.65F
#MT HOWARD 8000 N/A         58  43  57  E1      30.28R
#PROMISE 1S     N/A         75  45  34  N2      29.92F
#WALLOWA SCHOOL N/A         78  47  34  CALM    29.95F



$$



USA.gov is the U.S. government's official web portal to all federal, state and local government web resources and services.